GEFSGL_500_meanwind_000.txt.gz
Wind_Speed
26 27 23 21 24 24 24 27 28 28 27 23 18 17 19 19 20 19 18 20 23 24 24 24 26 27 26 24 21 18 16 16 16 15 14 13 13 13 14 15 14 14 15
22 28 21 21 23 24 25 26 27 28 28 29 24 21 21 22 23 22 20 21 22 25 28 28 29 29 29 25 21 18 17 16 14 14 13 12 11 9 11 12 13 14 14
19 27 27 23 23 24 24 23 23 26 26 27 27 25 24 24 23 22 21 21 22 24 27 30 28 28 29 27 23 19 17 15 14 14 12 11 10 9 9 11 12 14 14
20 23 24 24 24 25 24 23 23 24 24 25 26 25 25 26 24 23 22 25 25 26 29 31 27 24 24 26 22 19 17 15 13 12 11 10 9 9 9 9 11 14 14
17 20 25 25 24 23 23 22 22 23 24 24 25 25 25 26 27 26 23 25 23 24 28 31 31 25 23 23 21 19 16 14 13 12 12 10 9 8 8 8 11 14 15
19 21 23 22 22 23 23 23 23 23 23 23 24 25 26 28 28 27 25 27 28 25 25 29 32 29 26 24 23 19 15 14 13 12 13 13 10 9 9 9 11 14 15
26 26 25 25 25 26 27 26 27 28 29 28 25 24 26 26 27 27 27 26 28 27 24 29 34 34 31 26 24 20 17 14 14 13 14 14 12 12 12 12 13 14 15
27 27 27 26 25 23 25 26 26 26 29 29 30 27 26 26 26 27 28 28 28 29 26 28 36 37 32 27 24 22 18 16 15 13 14 15 15 14 14 14 15 15 15
29 27 27 28 28 27 27 27 26 25 26 29 30 30 26 25 25 28 30 32 31 29 28 25 29 33 33 27 24 23 20 18 17 14 15 16 17 17 16 15 16 16 15
30 29 30 29 27 27 26 26 26 26 24 23 25 29 30 29 27 26 28 29 29 29 27 26 28 31 31 27 25 24 22 20 19 17 17 19 20 19 18 16 16 17 17
29 29 30 30 29 27 25 23 24 23 21 23 25 26 27 27 26 26 28 28 27 27 28 29 31 28 29 29 30 27 23 23 23 20 19 21 23 21 20 18 17 18 18
29 28 28 29 30 28 28 24 21 21 20 20 20 21 21 22 23 25 28 29 28 28 31 32 31 30 30 30 31 28 25 26 26 23 21 22 23 24 24 23 21 20 19
30 28 27 28 28 29 28 27 23 22 23 22 21 20 20 21 22 24 27 30 31 32 33 34 36 36 36 31 26 25 25 28 30 26 23 23 23 24 27 28 28 26 24
28 27 26 27 27 27 27 27 26 24 23 23 23 24 25 25 25 25 27 30 31 34 35 35 37 39 37 34 31 26 27 30 31 29 26 25 24 24 26 30 32 32 30
13 18 22 23 24 25 26 26 26 25 24 24 24 26 27 27 27 27 28 31 33 34 37 38 37 36 33 32 32 32 32 32 32 32 28 26 25 23 24 27 31 33 33
7 12 17 19 19 22 25 25 23 22 22 23 23 24 26 27 28 29 30 31 34 36 38 39 37 35 35 35 36 38 39 35 34 33 31 28 26 24 23 24 27 31 33
2 6 11 13 13 15 17 19 19 19 19 19 20 21 23 24 26 27 29 31 34 33 33 35 37 36 36 36 33 31 37 39 35 33 32 31 29 27 25 25 26 28 30
7 8 9 9 9 11 12 14 13 13 14 15 16 16 17 19 22 24 27 27 27 30 30 31 34 35 34 33 33 30 29 33 36 34 32 31 29 28 28 28 29 29 30
10 9 10 11 11 11 10 9 8 8 10 11 10 9 10 11 13 16 20 25 26 28 29 29 28 28 30 30 30 28 28 32 34 34 32 32 30 29 28 28 28 30 32
8 8 9 9 8 8 6 5 4 4 6 7 6 6 6 5 5 5 7 18 26 28 28 27 24 23 25 25 24 27 31 32 32 31 30 30 30 29 28 28 29 31 33
4 4 5 4 4 5 5 4 2 2 4 5 5 6 5 3 4 5 7 13 22 24 24 21 22 23 24 23 25 28 30 31 30 29 28 29 29 29 28 29 30 31 32
5 1 2 1 3 5 5 4 3 2 1 2 2 3 4 5 4 2 7 12 16 19 16 14 15 21 27 26 27 26 27 28 29 30 29 29 30 29 29 30 31 32 33
11 9 7 5 6 6 4 3 2 2 1 1 2 3 4 5 5 4 5 9 11 14 16 17 16 16 18 24 28 29 30 30 30 29 31 31 32 31 31 32 33 34 34
15 12 9 7 5 4 2 0 2 3 3 3 2 3 5 6 7 8 8 9 12 14 17 19 18 17 18 21 25 27 28 28 28 29 30 31 31 31 31 32 33 34 35
15 14 11 6 3 1 1 2 4 5 5 5 5 5 5 7 9 11 13 14 16 18 19 20 20 20 20 20 22 24 26 26 27 28 29 29 30 30 30 31 33 34 35
14 13 11 9 5 3 3 4 6 7 7 7 7 7 8 9 10 12 14 15 17 19 20 21 21 21 22 23 24 26 28 28 27 27 28 28 29 30 32 34 35 36 36

GEFSGL_500_meanwind_006.txt.gz
Wind_Speed
21 20 19 18 21 23 26 25 25 25 25 24 24 22 20 18 18 19 21 22 22 21 18 18 20 23 22 19 19 20 19 20 20 18 17 18 19 19 19 20 20 21 21
20 19 18 19 22 26 28 28 27 27 26 25 24 24 24 22 21 21 22 22 22 20 18 18 20 20 21 20 18 19 18 19 20 19 18 19 20 20 19 19 19 17 17
20 19 19 21 23 26 29 31 30 28 27 26 25 25 26 26 26 25 24 24 24 23 22 20 20 21 19 20 19 20 19 20 21 20 19 19 20 20 18 18 16 14 15
19 19 20 21 23 26 28 30 30 29 28 26 26 26 26 27 28 29 27 26 25 24 23 21 20 20 21 23 22 22 21 22 23 22 19 19 20 18 17 17 15 14 13
22 21 21 21 22 24 26 27 28 29 28 26 26 25 25 25 27 30 31 29 27 24 23 22 21 19 19 22 22 22 21 22 23 21 18 18 18 16 16 16 14 11 11
26 25 25 24 24 24 24 24 24 26 26 24 24 25 25 24 26 29 30 30 28 25 24 23 22 20 19 21 22 21 18 19 21 19 16 16 17 16 16 15 12 10 9
28 27 27 27 26 26 26 25 24 23 23 24 24 24 24 23 24 25 26 25 25 26 24 24 23 23 22 21 23 24 22 20 20 19 17 16 16 16 15 15 12 9 8
28 27 28 30 28 27 27 26 25 23 23 24 25 25 26 24 23 21 21 20 20 22 24 25 24 25 26 24 24 27 26 24 22 20 17 16 15 15 15 14 13 10 8
27 27 28 29 30 30 30 28 26 24 23 22 23 24 24 24 25 24 23 21 20 22 23 24 24 25 26 26 24 28 30 28 26 23 20 17 17 17 17 16 15 13 11
28 29 29 29 30 31 32 30 27 25 25 24 23 23 23 23 23 24 25 24 22 22 23 24 26 27 27 27 26 27 31 31 30 27 23 20 19 19 18 17 17 15 13
30 31 32 32 31 31 30 29 27 26 25 25 25 25 24 23 22 22 23 25 25 23 23 24 25 27 27 27 28 28 31 34 34 30 25 23 23 21 20 19 19 17 16
32 33 34 34 33 30 27 26 26 26 24 23 23 24 23 22 21 21 21 24 25 25 24 23 24 25 25 26 26 26 31 36 34 29 26 25 24 23 21 21 21 20 18
31 32 33 33 31 27 25 24 23 24 23 22 21 20 20 19 19 18 19 19 21 22 23 23 23 25 25 26 26 27 31 34 31 26 26 26 25 23 22 23 23 21 20
25 24 24 24 24 23 23 22 21 21 21 21 20 20 19 18 17 16 16 17 17 19 20 22 23 25 26 27 28 28 29 30 26 24 23 23 24 24 23 23 24 23 23
20 18 15 13 16 18 20 20 19 18 18 19 20 19 19 19 18 18 18 18 19 20 21 22 23 26 26 26 27 26 26 27 25 22 22 23 23 24 25 25 24 25 25
15 11 6 2 8 13 15 16 16 15 15 17 18 19 19 19 19 20 20 21 22 23 24 24 24 26 28 29 28 27 27 27 25 23 23 24 23 25 28 28 27 26 25
12 8 6 4 6 8 10 12 13 13 14 15 16 17 18 20 21 22 23 24 25 26 27 27 27 28 29 31 31 31 30 29 28 26 27 27 27 28 30 31 30 28 26
12 9 7 7 7 7 8 9 9 10 11 12 14 15 17 19 21 22 24 25 26 27 28 29 30 30 31 32 32 33 32 31 30 29 28 28 29 30 32 33 32 30 28
11 10 9 9 9 8 7 6 5 6 7 10 12 14 16 17 18 19 20 22 24 26 28 29 30 31 31 32 32 32 32 31 30 29 29 29 30 31 33 35 34 33 31
9 9 9 8 8 7 5 4 1 2 5 7 10 11 12 13 14 15 17 18 20 21 23 25 27 28 28 28 28 29 30 30 30 30 30 30 29 31 33 34 33 33 32
6 6 6 5 4 4 3 2 2 2 4 5 6 7 8 10 10 11 12 14 15 15 15 17 20 22 24 24 23 24 26 28 29 29 29 29 30 32 33 32 31 31 32
6 4 4 3 3 3 3 3 3 4 4 4 4 5 6 7 7 7 9 9 7 6 6 10 13 16 19 20 21 22 23 25 26 26 27 28 31 32 31 30 30 31 32
10 7 6 5 4 4 3 4 5 5 5 5 5 5 5 5 5 6 6 6 4 3 4 7 10 13 16 18 20 21 22 23 23 25 25 26 27 28 28 28 30 31 32
12 10 8 6 5 5 4 5 5 5 5 5 4 4 5 6 6 7 7 7 6 6 6 8 9 11 12 14 17 18 19 21 21 22 22 21 21 23 25 27 29 31 33
14 12 11 9 7 6 6 6 6 6 6 6 6 6 6 7 8 9 9 10 10 10 9 10 10 11 12 12 12 14 16 18 19 19 19 19 20 22 25 27 30 33 35
13 13 12 11 10 9 8 7 7 7 7 7 7 7 7 8 9 11 12 13 13 13 13 14 14 14 15 15 15 14 15 16 18 19 20 21 22 24 26 29 32 34 35

GEFSGL_500_meanwind_012.txt.gz
Wind_Speed
16 17 17 17 18 18 18 19 19 21 24 26 28 29 28 27 26 26 25 24 24 24 25 27 28 28 26 25 25 26 26 26 25 22 20 19 18 16 14 14 15 15 17
17 18 18 19 19 18 18 19 21 22 25 27 27 27 27 26 26 26 24 24 23 23 24 25 26 25 24 23 22 23 25 26 25 23 20 18 17 16 14 14 15 15 16
20 20 19 20 19 19 19 18 20 20 22 24 24 25 25 26 27 26 26 25 24 24 24 24 24 23 22 21 20 21 22 24 26 24 21 19 18 17 15 15 15 15 14
24 23 22 21 20 19 18 19 19 20 21 23 24 24 25 26 26 27 27 27 27 26 26 25 24 24 23 22 21 21 22 24 26 24 21 20 20 18 16 15 14 13 13
26 26 24 23 22 21 20 19 19 19 21 22 23 24 25 27 28 28 28 28 28 29 28 27 27 27 25 23 21 20 20 22 23 23 23 22 21 20 18 16 14 12 12
27 27 26 25 25 24 23 21 21 20 20 21 22 22 23 25 27 29 30 30 30 30 30 30 29 28 26 24 22 20 20 21 22 23 24 23 23 22 19 16 14 12 12
26 26 26 26 27 27 26 25 24 23 22 22 23 22 23 24 26 27 29 29 29 30 31 32 32 30 28 26 23 22 22 22 22 23 23 22 22 22 20 18 16 14 13
25 26 26 26 27 27 27 27 27 26 25 25 25 23 23 23 25 26 27 27 28 28 29 29 30 31 29 28 26 24 23 23 23 24 24 24 25 24 21 19 17 15 14
24 24 24 25 26 27 28 28 28 28 27 27 26 25 24 23 24 25 25 25 26 26 27 26 27 29 29 29 28 27 26 26 25 25 26 27 27 27 24 21 19 17 15
24 24 25 26 28 29 30 30 30 29 29 28 28 27 25 25 25 25 26 26 26 26 27 27 26 26 28 29 30 29 28 28 28 27 27 28 27 27 25 23 20 18 17
26 27 27 28 29 30 31 32 32 31 30 29 28 27 26 26 26 25 25 26 27 27 27 27 26 26 27 28 29 30 30 30 30 30 28 28 28 28 27 25 22 20 18
25 26 27 28 29 30 31 32 32 31 30 29 28 27 26 26 26 24 24 24 25 26 28 29 28 28 27 28 29 29 30 30 31 31 30 29 30 31 31 29 26 23 21
23 24 25 26 27 29 30 31 31 30 28 27 27 26 26 25 25 24 24 25 24 25 27 28 29 29 29 29 29 30 30 31 31 32 31 31 33 35 36 33 30 27 24
21 21 21 21 23 24 25 26 26 26 25 25 25 24 24 24 23 23 23 23 23 23 25 26 28 29 30 29 30 30 30 31 31 32 32 32 35 37 38 37 34 30 28
17 16 16 16 15 14 15 16 18 20 21 22 22 22 22 23 22 21 21 21 20 21 21 23 25 27 28 28 28 29 30 30 29 29 30 31 33 36 38 38 35 33 31
15 14 13 13 10 5 3 8 12 15 17 19 19 20 20 20 20 20 20 20 19 19 20 21 22 23 25 25 25 26 27 28 27 28 29 30 31 33 34 34 34 34 33
13 12 12 11 9 6 5 6 10 12 14 15 16 17 18 18 19 19 19 20 20 20 21 23 24 24 25 25 25 25 25 26 26 27 28 29 28 28 29 30 31 33 34
12 11 11 10 10 8 7 7 8 9 10 11 12 14 15 16 17 17 18 19 20 21 22 24 26 27 28 28 28 27 26 27 27 28 28 28 27 27 27 27 29 31 33
10 10 10 10 9 8 7 6 6 6 7 8 9 11 12 13 14 14 15 16 18 19 21 23 25 27 29 30 30 30 29 29 29 29 29 28 28 27 27 27 30 32 33
8 9 9 9 9 9 8 7 5 4 4 4 6 7 9 10 11 12 12 13 15 17 19 21 24 26 28 29 30 30 31 31 31 31 32 32 32 31 30 31 32 33 33
8 7 7 8 8 8 7 6 5 4 2 1 2 3 5 6 7 8 9 10 11 12 14 15 17 19 22 25 26 27 28 29 30 30 31 32 33 33 33 33 34 34 34
9 8 7 7 7 7 7 6 6 5 4 2 1 0 2 3 4 6 6 7 8 9 10 11 11 12 13 15 18 21 23 24 26 28 29 30 31 32 33 32 33 34 35
9 9 8 7 7 7 7 7 7 6 6 4 3 2 2 3 4 5 5 7 8 9 9 9 9 9 8 8 11 14 17 20 21 23 24 27 28 29 30 31 33 34 35
11 10 10 9 8 8 7 7 7 7 7 6 5 4 4 4 5 6 6 8 8 9 9 9 8 7 6 6 7 9 12 15 17 19 20 22 24 26 28 29 30 32 34
12 12 12 11 11 10 10 9 9 9 9 8 7 7 6 6 7 7 7 8 8 8 8 8 8 7 7 7 7 8 9 12 14 17 18 19 21 23 24 26 27 28 28
13 13 13 13 12 12 12 12 12 11 11 10 10 9 9 9 9 9 9 9 8 8 7 7 7 8 8 8 8 8 9 9 11 14 16 18 19 20 22 23 24 25 25

GEFSGL_500_meanwind_018.txt.gz
Wind_Speed
16 15 14 14 15 16 17 18 18 19 20 20 21 22 24 27 28 30 30 32 32 32 32 31 30 30 29 29 29 28 27 26 24 23 22 21 21 20 20 20 19 19 19
18 16 16 15 16 17 18 19 20 20 20 21 21 21 23 26 28 29 29 30 32 32 32 31 31 30 30 29 30 29 29 28 27 25 24 24 23 22 21 21 21 20 20
20 19 18 18 18 19 20 20 21 21 22 22 23 24 24 25 27 27 28 30 31 31 31 31 31 30 29 29 29 29 29 28 28 27 26 25 24 24 23 23 22 21 20
20 21 21 21 21 21 21 21 21 21 21 22 23 24 24 25 26 27 27 28 30 30 30 30 30 29 29 28 28 29 30 29 28 27 26 25 25 24 24 23 22 21 21
21 22 22 22 22 22 22 22 21 21 21 21 22 23 23 23 24 25 26 27 28 29 29 29 28 28 27 27 28 29 29 28 27 26 25 25 25 25 24 24 23 22 22
23 24 24 24 24 24 24 23 23 22 22 21 22 22 23 23 23 24 25 26 27 28 28 28 28 28 28 28 28 28 28 28 26 25 24 24 25 25 24 24 24 23 23
26 26 26 25 25 25 25 24 24 24 23 23 23 23 23 24 23 23 24 25 26 27 27 27 28 29 29 28 28 28 28 27 26 25 24 24 25 25 24 24 24 24 24
26 26 26 25 25 25 26 25 25 25 25 25 25 24 24 25 25 25 25 25 26 27 28 29 29 31 30 30 29 29 30 29 27 26 26 25 24 24 24 24 24 24 26
25 25 25 25 25 25 26 26 26 26 26 26 25 25 26 26 26 26 26 26 26 26 27 28 30 31 31 31 31 31 32 31 30 29 28 27 26 26 25 25 24 24 25
24 24 25 26 26 27 27 28 28 28 28 28 27 27 27 27 27 27 26 26 26 26 26 28 29 30 31 32 32 32 33 34 34 33 31 30 29 28 27 27 27 27 27
24 25 26 27 27 28 29 30 30 30 30 29 29 28 28 28 27 27 27 26 25 25 25 26 28 30 31 32 33 33 33 34 35 36 35 33 31 30 29 29 30 30 30
23 23 24 25 26 27 28 29 30 30 30 30 29 29 28 28 28 28 27 26 26 25 25 25 26 28 30 32 32 32 32 34 35 36 36 34 33 33 32 32 32 32 31
20 20 21 22 23 25 26 28 29 29 29 29 29 29 28 27 27 27 27 26 26 25 25 25 26 27 28 29 30 30 29 31 33 34 34 35 35 35 35 34 33 33 32
18 18 19 19 20 21 23 24 25 26 27 28 27 26 26 24 24 25 25 25 25 24 24 24 25 26 27 28 29 30 28 27 28 30 32 33 34 35 35 35 36 35 34
16 16 16 16 17 17 16 16 17 19 20 21 22 21 20 21 21 22 23 23 23 23 23 23 23 23 25 25 25 25 25 26 28 30 31 32 33 34 35 36 36 36 36
15 15 14 14 14 14 12 9 7 7 10 12 14 16 17 18 19 20 21 21 20 21 21 22 21 21 21 21 22 23 24 25 27 30 31 32 33 34 34 35 36 36 36
13 13 12 12 13 12 11 8 4 1 4 6 9 12 13 14 15 17 17 18 18 19 20 20 20 19 19 19 20 21 22 24 26 28 29 31 31 32 32 33 34 35 36
11 11 11 12 12 12 11 9 6 4 3 5 6 8 10 11 13 14 15 16 17 17 18 19 19 20 20 21 22 23 24 26 26 27 27 28 29 30 30 31 32 33 35
10 9 10 11 11 11 11 9 7 5 3 2 4 5 7 9 10 12 13 14 15 16 17 18 20 21 22 23 24 25 27 28 28 29 29 29 29 29 30 31 31 32 34
9 9 9 9 10 10 10 9 7 6 4 2 1 2 4 6 7 9 11 12 13 14 16 17 19 20 21 22 24 25 27 29 30 31 31 32 32 31 31 32 32 33 33
9 9 8 8 9 9 9 8 7 6 4 3 1 0 2 4 6 8 9 11 12 13 14 15 16 17 19 20 22 23 25 27 28 29 30 31 32 32 32 32 32 33 33
10 9 9 9 8 8 8 8 7 6 5 4 3 1 1 1 3 4 6 8 10 11 12 14 15 16 18 19 20 21 22 22 24 25 27 28 30 31 32 32 32 32 33
10 10 10 9 9 8 8 8 7 7 6 4 3 2 2 2 2 3 4 6 8 9 11 12 13 14 15 15 16 16 16 17 18 19 21 23 25 27 29 31 32 33 33
11 11 10 10 10 10 10 10 9 9 8 7 6 5 4 4 4 3 4 5 6 7 9 9 10 10 11 12 13 13 13 14 14 14 16 18 20 22 24 26 28 30 32
11 11 12 12 12 13 13 13 13 13 12 12 11 10 9 8 7 6 6 5 6 6 6 7 8 9 10 11 11 11 11 11 11 12 13 15 17 19 21 22 24 26 28
12 13 13 14 15 15 15 16 16 16 16 15 14 14 13 12 11 10 9 8 8 8 8 8 8 9 10 10 10 11 11 11 11 11 12 13 14 17 19 20 21 23 24

GEFSGL_500_meanwind_024.txt.gz
Wind_Speed
24 24 23 22 21 20 19 18 18 18 19 20 21 22 22 23 23 24 25 26 28 32 36 37 37 37 36 35 33 31 29 28 27 25 23 22 22 21 21 21 21 20 20
24 24 23 22 22 20 19 19 18 18 19 19 20 20 21 22 22 21 23 24 25 29 35 38 38 37 37 36 35 34 33 31 30 29 28 26 25 24 24 24 23 23 22
24 23 22 22 22 22 21 21 20 20 20 20 20 21 21 22 23 22 22 23 24 25 29 33 35 36 37 38 38 37 36 34 33 32 31 30 28 27 27 27 26 25 25
22 21 20 20 21 22 23 23 23 23 23 22 22 22 22 22 23 23 23 23 25 26 27 29 32 34 36 37 37 37 37 36 34 33 33 33 31 30 29 29 28 26 26
21 21 20 20 21 22 23 23 24 24 24 24 24 23 23 23 23 24 24 23 25 26 27 28 29 31 33 35 36 36 36 36 35 34 33 33 32 31 31 30 28 27 27
21 21 22 22 23 23 23 23 24 24 24 24 24 24 24 24 24 24 24 23 24 25 26 27 28 28 29 31 33 35 35 35 35 34 34 33 33 33 32 30 28 28 28
22 23 24 24 24 24 24 24 24 24 24 24 25 25 25 24 24 24 23 24 24 24 25 26 28 28 28 28 31 33 34 35 35 34 33 33 33 33 32 30 29 28 28
23 24 25 25 24 24 24 24 23 23 24 24 25 25 25 25 25 24 24 24 25 25 24 25 26 27 27 28 29 30 31 32 33 33 33 33 33 32 31 29 29 28 29
23 24 24 24 23 23 23 24 24 24 24 25 25 25 26 25 25 25 25 25 25 24 24 24 24 24 25 27 28 29 31 32 32 32 33 33 33 32 31 30 29 30 30
22 22 22 23 23 23 23 24 24 25 25 25 26 26 26 27 26 26 26 26 26 26 25 24 24 24 24 24 26 27 28 30 31 32 33 33 33 33 32 32 31 31 31
20 20 21 21 22 22 22 23 24 25 26 26 27 28 28 28 28 28 27 27 27 26 25 24 24 24 24 24 25 26 27 28 29 31 33 34 34 34 34 34 34 34 33
18 18 19 19 20 21 21 22 23 24 25 27 28 29 29 30 29 28 28 27 27 27 26 25 24 24 24 24 25 25 26 28 29 30 32 34 35 35 36 37 36 36 36
16 16 17 18 18 19 20 21 21 22 24 25 27 29 30 30 29 28 27 27 27 27 26 25 24 24 24 24 24 25 25 27 29 30 31 33 34 36 37 38 38 38 37
15 15 15 16 16 17 17 18 19 20 21 22 24 26 28 28 27 27 26 26 26 26 25 25 24 24 24 23 23 24 25 26 28 30 31 31 33 35 37 38 39 40 39
13 13 13 13 14 15 15 15 16 16 16 17 18 20 22 23 24 24 24 23 24 24 24 24 24 23 23 24 24 24 25 26 26 28 29 30 30 32 35 36 38 40 40
11 11 12 12 13 13 14 13 12 10 9 8 10 12 15 16 18 20 21 21 21 21 21 22 22 22 22 22 23 24 24 25 25 26 27 27 28 30 32 34 36 37 38
10 11 11 11 12 13 13 12 11 9 6 3 2 4 7 10 12 14 16 17 17 17 18 18 19 20 20 21 21 21 22 22 23 24 24 26 27 28 30 32 34 35 36
10 10 11 10 11 12 12 11 10 9 7 4 3 3 5 6 8 10 11 12 13 14 15 16 16 18 19 20 21 22 22 23 24 24 25 26 26 27 29 30 31 32 34
11 11 10 10 10 11 11 11 10 9 7 6 4 4 4 4 5 6 8 9 10 11 13 14 15 16 17 19 20 21 22 23 25 25 26 27 28 29 30 31 32 33 33
11 11 10 10 10 10 10 10 9 8 7 6 5 4 3 3 4 5 6 7 8 9 10 12 13 14 15 16 18 19 20 21 23 24 26 27 28 29 30 32 33 33 34
11 11 10 10 10 9 9 9 8 8 7 6 5 5 3 3 2 3 4 5 6 7 8 9 11 12 14 15 16 17 19 20 22 23 25 27 28 29 30 31 32 33 34
11 11 11 10 10 10 10 9 9 8 8 7 6 5 5 4 3 2 1 2 3 4 6 7 9 10 11 13 14 16 18 19 20 22 23 24 24 26 27 29 30 31 33
11 11 11 12 12 12 12 11 11 10 10 9 8 7 6 6 5 4 3 2 1 2 3 5 6 8 9 11 13 14 15 16 17 18 20 20 21 22 23 24 25 27 29
11 12 13 13 13 13 13 13 13 12 12 11 11 10 9 8 8 7 5 4 4 3 4 4 6 7 9 10 11 13 14 15 17 18 18 19 19 19 19 20 21 23 25
11 12 13 14 14 15 15 15 15 15 15 15 14 14 13 12 11 10 9 8 7 7 6 7 7 8 9 9 10 11 12 14 15 15 16 16 17 17 18 19 20 22 24
10 11 12 13 14 15 15 16 16 17 17 17 17 17 16 15 14 13 13 12 11 11 10 10 10 10 10 11 12 12 13 14 14 15 16 16 17 17 18 19 20 21 22

GEFSGL_500_meanwind_030.txt.gz
Wind_Speed
21 21 22 22 23 23 23 22 22 21 20 20 19 19 20 20 21 21 21 21 21 20 21 23 25 27 29 31 33 33 31 29 27 25 22 20 19 19 18 18 18 18 17
22 22 22 22 22 21 21 21 21 20 20 19 19 19 19 19 19 20 20 20 21 20 20 22 23 26 28 31 33 33 33 32 30 28 26 24 23 22 21 20 20 19 19
21 21 22 22 22 21 20 20 20 20 20 20 20 20 20 19 19 20 20 20 21 20 20 20 21 23 26 29 32 34 35 34 32 31 29 28 27 25 25 24 23 21 21
22 23 23 22 22 21 20 19 20 20 21 21 21 21 21 21 21 21 21 21 22 22 22 21 21 22 24 27 30 34 35 35 33 32 30 30 29 28 27 28 27 25 24
24 24 23 22 21 21 20 20 21 22 22 22 22 23 23 23 23 23 22 22 22 23 22 22 22 22 23 25 27 31 34 35 35 34 32 31 31 31 30 29 29 28 26
24 23 22 22 22 21 22 22 22 23 23 23 23 23 23 24 24 24 24 24 23 23 23 23 23 22 22 24 25 28 30 33 34 35 35 33 32 32 31 30 29 28 28
21 22 22 22 22 22 23 24 24 24 24 24 24 23 23 24 24 25 25 25 25 24 24 23 23 23 23 23 24 26 28 30 32 34 35 34 33 32 31 31 30 29 29
20 21 21 22 23 23 24 25 25 24 24 24 24 24 24 24 25 25 25 25 25 25 24 23 23 23 23 24 24 25 26 27 29 30 32 34 34 33 32 31 31 31 30
21 21 22 22 23 23 24 24 24 24 24 24 24 24 24 24 25 25 25 25 25 25 24 23 23 22 22 22 23 24 25 26 27 27 28 30 32 33 33 32 32 31 31
20 21 22 22 23 23 23 23 23 23 23 24 24 24 25 25 25 25 25 26 25 25 25 24 23 23 23 23 22 22 22 23 24 25 26 27 28 30 31 32 32 32 33
20 21 22 22 21 21 22 22 23 23 23 23 24 24 25 25 25 25 25 26 26 25 25 24 23 23 23 22 22 22 22 22 22 23 24 24 26 28 30 31 32 33 34
20 20 19 19 19 20 20 21 22 22 22 23 24 24 25 25 25 26 27 27 26 26 25 24 23 23 22 22 21 21 21 21 21 21 22 23 24 26 28 30 32 33 34
18 18 18 18 18 18 18 19 20 21 21 22 23 24 25 25 25 26 27 27 27 27 26 25 24 23 22 22 21 22 22 21 21 21 22 23 23 23 24 26 28 30 32
17 17 16 16 16 16 17 17 18 18 19 21 22 23 24 25 25 25 26 26 26 27 26 25 23 22 21 21 21 21 21 21 22 22 23 24 24 24 25 26 27 29 31
16 16 15 15 15 15 16 16 16 16 17 17 18 19 20 21 21 22 22 23 23 23 23 23 22 21 21 21 21 20 20 21 22 22 22 23 23 24 25 26 28 30 31
16 15 15 15 15 14 14 14 14 14 14 13 13 12 12 13 14 14 15 16 17 18 19 19 19 19 19 19 19 19 20 20 21 21 22 23 24 25 26 27 28 29 31
16 15 15 14 14 13 12 12 12 12 11 10 8 7 6 5 6 7 8 10 12 13 14 15 15 15 15 16 16 17 18 18 20 21 22 23 24 26 27 28 29 30 31
16 15 14 13 12 11 11 11 11 10 9 8 7 6 4 2 1 2 4 6 8 9 10 11 11 12 13 13 14 15 17 18 19 21 22 24 26 27 28 29 30 31 32
15 14 13 12 11 10 10 10 9 8 7 7 6 5 5 4 4 4 4 4 5 6 7 7 8 9 10 11 12 14 16 17 19 21 23 24 26 28 29 30 31 32 33
15 13 12 11 9 9 8 8 8 7 7 6 6 6 6 5 5 5 5 5 4 4 4 5 6 7 8 10 12 14 15 17 19 20 22 24 26 27 29 30 31 33 34
14 13 12 11 9 9 8 8 8 7 7 7 7 7 7 7 6 6 5 4 3 2 1 2 4 6 8 9 11 13 15 17 18 20 21 23 25 26 28 29 30 31 32
14 14 13 12 11 10 9 9 9 9 9 8 8 8 8 8 7 6 6 5 3 2 1 2 4 5 7 9 11 13 14 16 17 19 21 22 24 25 26 27 29 30 30
14 14 14 13 13 12 11 11 11 11 10 10 10 10 9 9 8 8 7 6 5 4 4 4 4 6 7 8 10 11 13 15 16 18 20 21 23 25 26 26 27 28 29
14 14 14 14 14 14 13 13 13 13 13 13 12 12 12 11 11 10 10 9 8 7 7 7 7 7 8 9 11 12 13 15 16 18 19 21 23 24 25 26 26 27 28
12 13 13 13 13 14 14 14 14 14 14 13 13 13 12 12 12 12 12 11 11 10 10 9 10 10 11 11 13 14 15 16 18 20 21 23 24 25 26 27 27 27 28
11 11 12 12 12 13 13 13 14 14 14 14 14 14 13 13 13 13 13 12 12 12 12 12 12 12 13 14 15 16 18 19 21 23 24 25 26 27 27 27 27 27 27

GEFSGL_500_meanwind_036.txt.gz
Wind_Speed
17 18 19 21 22 23 23 23 23 23 23 23 23 23 22 22 22 22 23 23 23 23 22 21 22 22 23 25 26 28 30 30 29 29 28 26 24 23 22 21 21 21 21
16 18 20 21 21 22 22 21 21 21 21 21 21 21 21 20 20 20 20 21 21 21 21 20 20 20 21 24 26 27 29 31 31 31 31 30 28 26 24 23 22 22 22
17 19 19 20 21 22 22 21 20 20 20 19 19 19 19 20 20 20 20 19 19 19 19 19 19 18 18 20 23 25 28 30 32 32 32 32 32 30 28 26 25 24 23
19 20 21 22 21 22 21 21 20 19 19 19 19 19 19 19 19 20 20 19 19 19 19 19 19 19 18 19 19 22 25 28 31 33 34 34 35 34 32 31 29 28 26
20 21 23 22 21 20 19 18 18 18 19 19 19 19 19 19 19 19 20 20 20 20 19 19 19 19 19 19 19 20 23 25 28 31 34 36 37 36 35 35 33 32 30
21 21 21 20 17 16 16 17 18 18 19 20 20 20 19 19 20 20 20 21 21 21 21 20 20 20 20 20 20 19 22 24 26 28 30 34 36 37 37 37 36 34 33
18 18 17 17 17 17 17 18 19 19 20 20 20 20 19 19 20 20 21 21 21 21 21 21 20 20 20 20 20 21 21 22 24 26 28 30 33 36 37 38 37 36 36
17 17 18 19 19 18 18 19 20 20 21 21 20 20 19 20 20 20 21 21 21 21 21 22 21 21 21 20 20 21 21 22 23 23 25 29 31 33 35 37 37 37 37
18 19 19 20 20 20 20 21 21 20 21 20 20 20 20 20 20 20 20 20 21 21 21 21 21 22 21 21 21 22 22 22 23 24 25 26 28 31 33 35 37 37 38
19 19 19 20 20 20 20 20 20 19 20 20 20 20 20 20 20 20 20 20 20 21 21 21 21 22 22 22 22 21 21 21 22 22 24 26 27 29 29 31 33 34 36
18 19 19 19 19 20 19 19 18 18 19 20 20 20 20 20 20 20 20 20 20 20 21 21 21 21 21 21 22 22 22 21 21 22 22 24 25 27 29 30 30 31 33
18 19 19 19 19 19 18 18 19 19 19 20 20 20 20 20 20 20 20 20 20 20 20 21 21 21 21 21 21 21 22 22 22 22 22 23 24 25 26 27 29 30 31
18 18 18 18 18 18 18 18 18 19 19 20 19 19 20 20 21 21 20 20 20 20 20 21 21 21 21 21 21 21 21 22 22 22 22 23 23 24 25 26 26 27 29
17 17 17 18 18 18 18 18 18 18 18 18 18 19 19 19 20 20 20 20 20 20 21 21 21 21 21 21 21 21 20 21 22 22 22 22 23 24 24 25 26 26 27
17 17 17 17 17 17 17 16 16 16 16 16 16 17 17 17 17 17 17 18 18 19 20 21 20 20 20 20 21 20 20 20 21 21 22 22 23 24 25 26 26 27 28
17 17 17 17 16 15 14 14 14 14 14 13 13 12 12 12 12 12 12 13 14 15 16 18 18 19 18 18 19 19 19 20 20 21 21 22 23 24 25 26 28 28 29
18 17 16 15 14 13 12 12 12 11 11 10 10 9 8 7 6 6 6 7 8 9 11 12 13 14 14 15 16 17 17 18 19 20 21 22 23 25 26 27 28 30 31
17 16 15 14 13 12 11 10 10 9 9 8 8 7 6 5 4 2 1 2 3 4 6 7 8 9 10 11 12 13 15 16 17 19 20 22 23 25 26 28 30 31 32
17 16 14 13 12 10 9 9 9 8 8 8 7 7 6 6 5 4 4 3 2 2 3 4 4 5 6 7 9 11 13 15 16 18 20 21 23 25 27 28 30 31 33
16 16 14 13 12 11 10 9 9 9 9 9 9 8 8 7 7 7 6 5 5 4 3 2 2 2 4 5 7 9 11 13 15 17 19 21 23 24 26 28 29 31 32
16 16 15 14 13 12 11 11 10 10 10 10 10 10 10 10 9 9 8 7 7 6 4 3 2 2 3 4 6 8 10 12 14 16 18 19 21 23 25 26 28 29 31
17 16 16 15 14 14 13 13 12 12 12 12 12 12 12 12 11 11 10 10 9 8 7 6 5 5 5 5 7 8 10 11 13 15 17 19 21 22 24 26 27 29 30
16 16 16 16 16 15 14 14 14 13 13 13 13 13 13 13 12 12 12 11 11 10 9 9 8 8 9 9 10 11 12 13 15 17 18 20 21 22 24 25 26 28 29
15 15 15 15 15 15 15 14 14 14 14 14 14 14 14 13 13 12 12 12 11 11 11 10 10 11 11 11 12 13 14 15 17 18 19 20 21 22 23 24 25 26 27
13 13 13 13 14 14 14 14 14 14 14 14 14 14 14 14 13 13 13 12 12 12 12 12 12 12 13 14 15 15 16 18 19 20 21 22 22 23 23 24 24 25 25
11 11 12 12 13 13 13 14 14 14 13 13 13 13 13 13 13 12 12 12 12 12 13 13 13 14 14 15 16 17 18 19 20 21 22 23 24 24 24 24 24 24 25

GEFSGL_500_meanwind_042.txt.gz
Wind_Speed
16 15 15 15 16 18 20 21 22 23 24 24 23 24 24 24 24 24 24 24 25 25 25 26 26 26 27 26 26 27 27 27 28 30 31 29 28 27 25 24 24 23 22
12 12 13 15 17 19 21 22 23 23 24 24 24 23 23 24 24 23 23 23 23 23 23 24 24 24 25 24 25 27 28 27 28 30 31 31 30 29 27 26 25 25 24
11 12 13 16 18 20 21 23 24 24 24 24 24 23 23 22 22 22 22 22 22 22 22 22 22 23 23 23 24 24 25 27 27 28 30 31 31 31 30 29 28 27 26
11 13 15 17 19 19 21 22 23 23 23 23 24 23 22 22 21 22 22 22 22 22 22 22 22 21 22 22 22 23 23 23 24 26 28 30 31 31 31 31 31 31 30
12 14 16 17 18 19 19 19 20 19 19 20 20 20 20 21 21 21 21 22 22 22 22 22 22 22 22 22 21 21 21 22 23 23 26 29 30 30 31 32 34 34 32
11 13 14 15 17 17 17 17 17 16 16 17 19 19 19 19 19 20 20 21 22 22 22 22 22 22 22 22 22 21 21 21 22 23 23 26 28 31 33 33 34 35 34
11 13 14 15 16 16 16 16 16 16 16 16 17 18 19 20 20 20 20 21 22 22 22 22 22 23 23 23 23 22 21 22 22 22 23 24 26 29 31 31 33 35 36
12 14 15 15 16 16 17 17 16 16 16 17 18 18 19 20 20 20 20 20 21 21 22 22 22 23 23 22 22 23 23 22 22 23 23 23 24 26 28 29 31 34 36
12 13 14 15 16 16 17 17 16 17 17 17 18 18 19 19 19 19 20 20 21 21 21 21 22 21 22 22 22 22 22 22 22 23 23 24 24 24 25 28 29 30 33
13 14 15 15 16 17 17 17 17 17 17 17 18 18 18 19 19 19 19 19 20 20 20 20 20 20 21 21 22 22 22 22 22 23 23 23 24 25 26 27 28 29 30
15 15 15 16 16 16 16 16 16 16 17 17 17 18 18 19 19 19 19 19 19 19 20 20 20 19 20 21 21 22 22 22 22 23 23 23 24 24 24 26 27 28 29
16 16 16 16 16 16 16 16 16 16 16 17 17 18 18 19 19 19 19 19 19 19 19 19 20 19 19 20 20 21 21 21 22 22 23 23 23 23 23 24 25 26 28
17 17 17 17 17 17 16 16 16 15 15 15 15 16 16 17 17 18 18 18 18 19 19 19 19 19 19 19 19 20 20 21 21 21 22 22 23 23 24 24 24 25 27
19 19 19 18 18 17 16 15 14 13 13 13 13 14 14 15 15 16 17 17 18 18 18 18 18 18 19 19 19 19 19 20 20 20 21 21 22 23 23 24 24 25 26
19 19 18 17 16 15 13 12 11 11 10 10 10 10 11 12 12 12 13 14 14 15 15 16 16 17 17 17 18 18 19 19 19 19 20 20 21 22 23 24 25 25 26
19 18 17 16 14 12 11 10 9 8 8 7 7 7 7 7 6 6 7 8 8 9 10 11 12 13 14 14 15 15 15 16 17 17 18 19 19 20 21 22 24 25 26
18 17 16 14 12 11 10 9 9 8 8 7 7 6 6 5 4 3 2 2 3 4 5 6 7 8 9 10 11 12 12 13 13 15 16 17 18 20 21 22 24 25 27
18 17 16 14 12 11 10 10 10 10 10 10 10 9 9 8 7 6 4 3 2 1 1 0 1 3 4 5 6 7 8 9 11 12 14 15 17 19 20 22 23 25 26
18 18 17 15 13 12 12 11 11 12 12 12 12 12 12 11 10 10 9 8 7 6 5 4 3 2 2 2 3 4 6 7 9 11 12 14 16 18 19 21 22 24 26
18 18 17 16 15 14 14 14 14 14 14 14 14 14 14 14 13 13 12 11 10 9 8 7 6 5 5 4 5 5 6 7 9 10 12 14 15 17 19 20 22 24 26
18 17 17 17 16 16 15 15 15 15 15 15 15 15 15 15 14 14 14 13 13 12 11 10 9 8 7 7 7 7 8 9 9 11 12 14 15 16 18 19 21 22 24
17 17 17 17 16 16 16 16 16 16 16 16 16 16 16 15 15 15 15 15 14 14 13 12 11 10 10 9 9 10 10 10 11 12 13 14 15 16 17 19 20 21 22
16 16 16 16 16 16 16 16 16 16 16 16 16 16 15 15 15 15 15 14 14 14 13 13 12 12 11 11 11 11 12 12 12 13 14 15 16 17 18 19 20 21 22
14 15 15 15 15 16 16 15 16 16 16 16 16 16 15 15 15 15 14 14 14 14 14 14 13 13 13 13 13 13 13 13 14 14 15 16 17 18 19 20 21 23 23
12 13 13 14 14 15 15 15 15 15 15 15 15 15 15 15 15 15 14 14 14 14 14 14 14 14 14 14 14 14 14 14 15 15 16 17 18 19 21 22 23 24 25
10 10 11 12 13 13 14 14 14 14 14 14 14 14 14 14 14 14 14 13 13 13 13 14 14 14 14 15 15 15 15 16 16 17 18 19 20 21 22 23 24 25 26

GEFSGL_500_meanwind_048.txt.gz
Wind_Speed
25 25 24 23 22 20 19 18 17 15 14 13 14 16 18 19 21 22 23 23 23 23 23 24 24 24 24 23 23 24 24 25 26 27 28 28 28 28 28 28 27 27 27
17 16 15 14 13 12 12 12 11 11 11 13 14 16 18 20 21 22 22 23 23 23 23 23 23 23 23 23 23 23 23 24 24 26 27 28 28 28 28 29 29 29 28
10 10 9 8 7 7 7 7 9 10 11 13 15 16 17 19 20 21 22 22 23 23 23 22 22 22 22 23 22 22 23 23 24 25 26 27 26 27 28 29 30 30 30
8 7 6 6 6 6 7 8 10 12 13 14 15 16 18 19 20 21 21 22 22 22 22 22 22 22 22 22 22 22 22 22 23 23 25 26 26 26 27 28 28 31 32
5 5 5 6 7 8 9 10 11 12 14 15 17 17 19 20 20 21 20 20 21 21 21 21 21 22 22 21 21 21 21 22 22 22 23 24 25 25 26 26 28 29 30
3 5 6 7 8 9 10 11 12 14 15 16 17 18 18 19 19 20 20 21 21 21 21 21 21 22 22 21 21 21 21 22 22 23 22 22 23 24 24 25 28 29 30
5 6 8 9 9 10 12 13 13 14 15 16 17 18 19 19 19 20 20 21 21 21 21 21 21 21 21 21 22 22 22 22 22 23 23 22 22 22 23 23 24 27 29
8 9 11 12 12 13 14 15 15 16 16 17 18 18 19 19 20 20 20 20 21 21 21 20 20 20 20 20 21 21 22 22 22 22 23 22 22 22 22 22 22 25 26
10 11 12 13 14 15 16 17 17 18 18 19 19 19 19 19 19 19 19 20 20 20 20 20 20 20 19 19 20 20 20 21 21 21 22 21 21 21 21 21 22 22 24
11 12 13 14 15 16 16 17 17 18 18 19 19 20 20 20 20 20 20 20 20 19 19 19 19 19 19 19 19 19 19 20 20 20 20 21 20 20 20 20 21 22 22
12 13 14 14 15 15 16 16 17 17 18 18 19 19 20 20 20 20 20 20 20 20 19 18 18 18 17 17 18 18 18 19 19 19 19 20 20 20 20 20 21 21 22
13 13 14 14 15 15 15 15 16 16 17 18 18 18 19 19 20 20 20 20 20 20 19 19 18 18 18 17 17 17 17 17 18 18 19 19 19 20 20 20 21 21 22
13 13 13 13 13 13 13 13 13 14 14 15 15 16 17 17 18 18 19 19 19 19 19 19 18 17 17 17 16 16 16 16 16 17 18 18 18 19 19 20 20 21 22
14 13 13 12 12 10 10 10 11 11 11 11 12 12 13 14 14 15 15 16 17 17 17 17 16 16 16 16 15 14 14 14 15 15 16 17 17 18 18 19 19 20 21
14 14 13 12 11 10 9 9 8 8 7 7 7 8 9 9 10 10 11 12 12 13 13 14 14 13 13 13 13 13 13 13 13 14 14 15 15 16 17 18 19 20 21
15 15 14 13 12 11 10 9 8 7 7 6 5 5 5 5 5 6 6 7 7 8 8 9 9 9 9 9 9 10 10 11 11 12 12 13 14 14 15 16 18 19 20
16 16 15 14 13 12 11 10 10 9 9 8 7 6 5 4 3 2 1 1 1 2 3 3 4 4 4 5 5 6 6 6 7 8 9 10 11 12 13 15 16 18 19
17 16 15 15 14 13 13 13 12 12 11 11 10 10 9 8 7 7 6 5 5 4 3 2 2 2 1 1 1 2 3 4 5 6 7 8 9 10 11 13 14 16 18
17 16 16 15 15 14 14 14 14 14 14 13 13 13 13 12 11 10 10 9 8 8 7 6 5 4 4 3 2 2 2 3 3 5 6 7 7 9 10 12 13 15 17
16 16 16 16 16 15 15 15 15 15 15 15 15 14 14 14 14 13 12 12 11 10 9 8 8 7 6 5 4 4 4 4 5 5 6 7 8 9 10 12 13 15 17
15 15 15 15 16 16 15 15 15 15 15 15 15 15 15 15 15 14 14 13 13 12 11 10 9 9 8 7 7 7 7 7 7 7 8 8 9 10 11 12 14 15 17
14 14 15 15 15 16 16 15 15 15 15 15 15 15 15 15 15 14 14 14 14 13 13 12 12 11 10 9 9 9 9 9 9 9 9 10 10 11 12 14 15 16 18
13 14 14 14 15 15 15 15 15 15 15 15 15 15 15 15 14 14 14 14 14 14 13 13 12 12 11 11 10 10 10 9 10 10 10 11 12 13 14 15 16 18 20
11 12 13 13 14 14 14 14 14 15 14 14 14 14 14 14 14 13 13 13 13 13 13 13 12 12 12 11 11 11 11 11 11 11 11 12 13 14 15 16 18 20 21
9 10 10 11 12 12 13 13 13 13 13 14 13 13 13 13 13 13 13 12 12 12 12 12 12 12 12 12 12 12 12 12 12 12 13 14 15 16 17 18 19 21 22
6 8 8 9 9 10 11 11 12 12 12 12 13 13 13 13 13 12 12 12 12 12 12 12 12 12 12 12 12 12 13 13 13 14 14 15 16 17 18 19 20 21 23

GEFSGL_500_meanwind_054.txt.gz
Wind_Speed
21 22 23 23 23 24 25 25 24 24 25 25 25 24 22 22 22 23 23 23 22 23 23 23 23 24 24 24 24 24 24 24 24 25 26 25 25 25 25 25 25 25 27
16 17 17 17 18 18 18 18 17 17 19 20 20 19 19 20 21 21 20 20 21 22 22 23 23 23 23 23 23 24 24 24 24 24 25 25 24 25 25 26 25 25 26
10 11 11 10 10 10 10 11 10 12 13 15 15 16 17 17 17 17 17 18 19 20 21 22 23 23 23 23 23 23 23 23 24 24 24 25 25 24 24 24 24 24 24
5 6 6 6 6 6 7 7 7 8 9 10 12 12 13 13 13 14 16 17 18 19 20 21 21 22 22 22 22 23 23 23 23 23 23 24 24 24 24 23 24 24 24
4 5 4 5 4 4 4 4 5 6 7 8 9 11 12 13 13 15 16 16 17 18 19 19 20 20 21 21 21 21 21 22 22 23 23 22 23 23 23 23 23 23 24
6 6 5 5 5 5 5 5 6 7 8 9 10 11 13 14 15 15 16 16 17 17 18 19 19 19 20 20 20 21 21 22 22 22 22 22 22 22 22 22 22 22 22
7 6 6 6 6 6 7 8 9 9 10 11 11 12 13 13 14 15 16 17 17 18 18 19 19 19 19 19 19 20 20 21 21 21 21 21 21 21 21 22 22 22 22
9 9 8 8 8 9 10 10 10 11 11 12 13 14 14 14 15 16 16 16 17 17 17 18 18 19 18 19 19 19 19 19 19 19 20 20 21 21 21 21 21 20 20
12 12 11 11 11 11 11 11 12 12 13 13 14 14 15 15 16 16 16 17 17 16 16 16 16 17 17 17 17 17 17 17 17 18 18 19 19 19 19 19 19 19 20
14 13 13 13 13 13 13 13 13 13 13 14 14 15 15 15 15 16 16 17 17 16 16 15 15 15 15 16 15 15 16 16 16 16 17 17 17 18 18 18 18 18 18
15 15 14 14 13 13 13 13 13 13 13 13 14 14 15 15 15 15 15 16 16 16 15 15 14 14 14 14 14 14 15 15 15 15 16 16 16 16 16 16 17 17 17
16 15 15 14 13 13 13 12 12 12 12 12 12 12 13 13 13 14 14 15 15 15 14 13 13 13 12 13 13 13 14 14 14 14 14 14 14 15 15 15 16 16 16
16 16 15 15 13 13 12 11 11 11 11 10 10 10 10 10 10 11 11 12 12 12 12 12 12 12 11 12 12 13 13 13 13 13 13 13 13 13 14 14 15 15 16
17 17 16 15 14 13 13 12 12 11 10 9 8 7 7 7 7 7 8 8 9 9 10 10 10 10 10 10 11 11 11 11 11 11 11 12 12 12 13 13 14 14 15
18 18 17 17 16 15 14 13 13 12 11 9 8 7 6 5 4 4 4 4 5 6 6 6 7 7 7 8 8 9 9 9 9 9 9 10 10 11 12 12 13 14 14
19 19 19 18 17 17 16 15 15 14 13 12 10 9 8 6 5 4 2 1 1 1 2 3 3 3 4 4 5 5 5 5 6 7 8 8 9 10 10 11 12 13 14
19 19 19 18 18 18 17 17 16 16 15 14 13 12 11 9 8 7 7 6 4 3 2 2 1 1 0 1 1 2 3 4 4 5 6 7 8 9 10 11 12 13 13
19 19 19 19 18 18 18 17 17 17 16 16 16 15 14 13 11 10 9 9 8 7 5 5 4 3 3 2 2 2 2 3 3 4 5 7 8 9 9 10 11 12 13
19 19 19 19 18 18 18 18 17 17 17 16 16 16 15 15 14 13 12 11 10 9 8 8 7 6 6 5 5 4 4 5 5 5 6 7 8 9 9 10 11 12 14
18 18 18 18 18 17 17 17 17 17 17 16 16 16 16 15 15 15 14 14 13 12 10 10 9 8 8 7 7 7 7 7 7 7 7 8 9 9 10 11 13 14 15
17 17 18 18 18 17 17 16 16 16 16 16 16 16 15 15 15 15 15 14 14 13 12 11 11 10 10 9 9 9 8 8 8 8 9 9 10 11 12 13 14 15 16
15 16 16 17 17 17 17 16 16 16 15 15 15 15 15 15 15 15 15 14 14 13 13 12 12 11 11 10 10 10 9 9 9 9 10 10 11 12 13 14 15 16 18
13 14 15 15 16 16 16 16 16 15 15 15 15 14 14 14 14 14 14 14 14 13 13 13 12 12 11 11 10 10 10 10 10 10 11 11 12 13 14 15 16 17 18
11 12 13 13 14 14 15 15 14 14 14 14 13 13 13 13 12 12 12 12 12 12 12 12 12 12 11 11 11 11 11 11 11 11 12 12 13 13 14 15 16 17 19
9 10 10 11 11 12 13 13 13 13 12 12 12 12 12 11 11 11 11 11 11 11 11 11 11 11 11 11 11 11 11 12 12 12 12 13 13 14 15 16 17 18 19
8 8 9 9 9 10 11 11 11 11 11 10 10 10 10 10 10 10 10 10 10 10 10 10 11 11 11 11 11 11 11 11 12 12 13 13 14 15 15 16 17 18 19

GEFSGL_500_meanwind_060.txt.gz
Wind_Speed
11 13 15 16 18 20 21 21 22 23 23 23 24 24 24 25 26 26 26 27 26 26 26 25 25 25 26 26 25 24 23 23 23 24 24 23 23 23 23 24 25 25 26
7 8 10 12 13 14 15 15 17 17 18 18 18 18 19 19 21 22 24 25 25 25 23 22 22 22 23 23 22 22 21 22 22 23 23 23 23 22 23 23 24 25 26
4 5 6 7 9 10 11 12 12 11 11 12 12 13 14 15 15 16 18 19 20 20 20 20 20 20 20 20 20 20 21 21 21 22 22 22 23 23 23 23 24 24 25
3 2 2 3 3 5 6 8 8 8 7 6 6 8 9 10 10 12 13 14 15 17 17 18 19 19 19 18 18 19 19 19 20 21 22 22 23 23 23 23 24 24 24
6 4 3 3 3 3 3 5 6 6 5 5 5 5 6 8 9 10 11 12 13 14 15 15 15 15 16 16 16 17 18 19 20 21 21 22 22 23 23 24 24 24 24
6 6 5 4 4 4 4 4 4 4 5 5 6 6 6 7 7 8 8 10 11 11 12 12 13 13 13 14 15 16 18 18 19 20 20 21 22 22 23 23 23 23 23
8 7 6 5 5 4 4 4 5 6 6 7 7 8 9 9 9 9 10 10 11 12 12 13 13 13 14 15 16 16 17 18 19 19 20 20 21 21 22 22 22 22 22
9 8 7 6 5 5 5 6 7 7 7 8 9 9 10 10 11 12 12 13 14 14 14 14 15 15 15 15 16 16 17 18 18 18 18 19 19 20 20 21 21 21 22
12 10 9 8 7 6 6 7 7 8 9 9 10 11 12 12 13 13 13 14 14 15 15 15 15 15 14 15 15 15 15 15 16 16 16 17 18 18 19 19 19 20 20
15 13 11 10 8 8 7 6 6 7 8 9 10 11 12 13 14 15 15 15 15 15 15 15 14 14 14 14 14 14 15 15 15 15 15 15 16 17 18 18 18 18 18
17 15 14 12 11 10 9 7 7 7 7 8 10 11 11 12 13 14 15 15 15 15 14 15 14 14 13 13 13 13 13 13 13 14 14 14 15 15 15 15 15 16 16
18 18 16 15 14 13 11 10 9 8 7 7 8 9 9 10 11 12 13 14 14 14 14 14 14 13 12 12 12 12 12 12 12 12 12 13 13 13 13 13 13 14 15
20 19 18 17 16 14 13 12 10 9 8 7 6 6 6 7 8 9 10 11 12 12 12 12 12 12 11 10 11 10 10 10 10 10 11 11 11 11 11 12 13 13 14
21 20 19 18 18 17 15 14 13 12 10 8 7 6 5 4 3 4 5 7 8 9 9 9 9 9 9 9 9 9 9 9 9 9 9 9 9 10 11 11 12 12 13
21 20 20 19 19 18 17 16 15 15 13 11 9 8 6 4 3 1 1 2 3 5 6 6 6 7 7 7 7 7 6 6 6 6 7 7 8 8 9 9 10 11 11
21 20 20 20 19 19 18 17 17 16 15 14 13 11 10 8 7 5 4 4 3 3 4 4 3 3 4 4 4 4 3 3 3 4 4 5 5 6 7 8 8 9 10
21 21 20 20 19 19 19 18 18 17 17 16 15 14 12 11 10 9 8 7 6 6 5 4 3 3 3 3 2 1 1 0 1 2 3 3 4 5 6 7 8 9 10
20 20 20 20 20 20 19 19 19 18 17 17 17 16 15 14 13 12 11 10 9 8 8 7 7 6 5 4 4 3 3 3 3 3 4 4 4 5 6 7 8 9 10
19 20 20 20 20 20 19 19 19 19 18 18 17 17 16 16 15 14 14 13 12 11 10 10 9 8 7 7 6 6 5 5 5 5 6 6 6 6 7 8 8 9 10
18 19 19 20 20 20 19 19 18 18 18 17 17 17 17 16 16 15 15 14 13 12 12 11 11 10 10 10 9 8 8 8 7 7 7 7 7 7 8 8 9 10 11
16 17 17 18 19 19 19 18 18 18 18 17 16 16 16 16 15 15 15 14 14 13 13 13 12 12 11 10 10 9 8 8 8 7 8 8 8 8 9 9 10 10 11
14 14 15 16 17 17 17 17 17 17 16 16 16 15 15 15 15 14 14 14 14 13 13 12 12 12 11 11 11 10 10 9 9 9 9 9 9 9 9 10 10 11 12
12 12 13 13 14 15 15 15 15 15 15 15 15 14 13 13 13 13 13 13 13 12 12 12 11 11 11 10 10 10 9 9 9 9 9 9 9 9 10 10 11 11 12
9 10 11 11 12 12 13 13 13 13 13 13 13 12 12 12 12 11 11 11 11 11 11 10 10 10 10 10 10 10 9 9 9 9 9 9 9 10 10 10 11 12 12
9 9 9 9 10 10 10 11 11 11 11 11 11 10 10 10 10 10 10 10 9 9 9 9 9 9 9 9 9 9 9 9 9 9 9 9 10 10 10 11 11 12 13
10 9 9 9 8 8 9 9 9 9 9 9 9 8 8 8 8 8 8 8 8 8 8 8 8 8 8 8 8 8 8 8 8 8 8 9 9 10 11 11 12 12 13

GEFSGL_500_meanwind_066.txt.gz
Wind_Speed
9 7 7 7 8 9 11 14 17 19 21 24 25 26 28 28 29 29 29 29 29 28 28 29 29 30 30 30 30 30 30 28 28 28 29 28 27 27 28 28 27 27 27
9 7 5 4 5 6 8 9 12 14 17 19 20 22 24 24 24 25 26 29 28 27 27 27 28 28 29 28 28 28 27 27 27 28 28 27 27 27 27 26 25 26 26
9 8 6 5 4 3 4 5 8 9 10 12 13 15 17 18 20 21 22 23 23 24 26 26 26 26 26 26 27 27 26 25 26 26 25 24 23 23 24 24 24 25 26
10 9 7 6 4 3 2 3 4 6 7 7 8 8 9 12 14 16 17 17 18 19 20 20 21 22 22 23 23 24 23 23 22 21 21 21 21 21 21 22 24 25 26
13 12 10 8 6 6 4 4 4 4 3 4 4 4 5 6 8 10 11 12 13 14 15 16 17 16 17 18 17 17 17 18 19 19 19 19 19 19 19 21 22 24 25
13 12 10 9 8 7 6 4 3 3 3 2 2 2 3 3 4 7 8 10 11 12 12 12 13 12 13 14 14 14 15 16 17 17 17 17 16 17 18 20 21 22 23
15 14 12 11 10 9 8 7 6 4 3 3 2 2 2 2 3 4 6 7 9 10 11 11 11 11 11 12 12 13 13 14 15 14 14 15 15 17 18 19 20 21 22
17 16 15 14 12 11 10 8 6 6 5 4 4 4 4 4 4 5 6 7 7 8 8 9 9 9 9 10 10 10 10 11 11 11 12 14 15 16 17 18 19 19 20
19 18 17 16 14 13 12 11 9 8 6 5 4 4 5 5 6 7 7 8 8 9 9 9 9 9 9 8 8 9 9 9 10 11 12 13 14 14 15 16 17 17 18
21 20 18 18 16 15 14 12 11 10 8 6 5 4 5 5 6 6 8 8 9 9 9 9 9 9 9 9 8 8 8 9 10 10 11 12 12 13 13 14 14 15 16
22 21 21 20 19 17 16 14 13 11 10 8 6 5 4 4 5 6 7 8 9 9 9 9 9 8 9 8 8 8 8 9 9 10 10 11 11 12 12 12 12 13 14
22 22 22 21 20 19 18 16 15 13 12 10 9 7 5 3 3 4 5 6 7 8 9 8 8 8 8 8 8 8 8 8 8 8 9 9 9 9 9 10 11 12 12
23 23 22 22 21 20 19 18 17 16 14 12 11 9 7 5 2 1 2 4 6 7 7 7 7 7 6 6 6 6 6 6 6 7 6 7 7 8 8 8 9 10 11
23 23 23 22 22 21 21 20 19 18 16 15 13 12 10 8 6 4 2 2 4 5 5 6 6 6 5 5 5 5 5 5 5 5 4 5 5 6 6 7 8 9 9
22 22 22 22 22 21 21 20 20 19 17 16 15 14 12 10 9 7 6 5 4 5 5 5 4 4 4 4 4 4 3 3 3 2 2 3 4 5 5 6 7 7 8
22 22 22 22 22 22 21 21 20 19 18 17 16 15 14 12 11 10 9 8 7 6 5 4 4 3 3 3 3 3 3 2 1 1 1 2 3 3 4 4 5 6 7
21 22 22 22 21 21 21 21 21 20 20 19 18 17 16 15 13 12 11 10 9 8 7 6 5 5 5 5 5 4 4 3 2 2 2 2 3 3 4 4 5 6 7
21 21 21 21 21 21 21 20 20 20 20 19 19 18 17 16 15 14 13 11 10 10 9 8 8 8 7 6 6 6 5 4 4 4 4 4 4 5 5 5 6 6 7
19 20 20 20 21 20 20 20 19 19 18 18 18 18 17 16 16 15 14 13 12 12 11 11 10 9 9 9 8 7 7 6 6 5 5 5 5 6 6 7 7 7 8
17 18 19 19 19 19 19 19 19 18 17 17 17 17 17 16 16 15 14 14 13 13 12 12 11 11 10 10 10 9 9 8 7 7 7 7 6 6 7 7 8 8 9
15 16 17 17 18 18 18 18 18 17 17 16 16 15 15 15 15 14 14 13 13 12 12 12 11 11 10 10 10 9 8 8 8 7 7 7 7 7 7 8 8 9 10
14 14 15 15 16 16 16 16 16 16 15 15 14 14 14 13 13 12 12 12 11 11 10 10 10 9 9 9 9 9 9 8 8 8 7 7 7 7 8 8 9 9 10
13 13 13 13 14 14 14 14 13 13 13 13 13 12 12 11 11 11 11 10 10 10 9 9 9 8 8 8 8 8 7 7 7 7 7 7 7 7 7 8 8 9 10
13 13 12 12 13 13 12 12 12 11 11 11 11 11 10 10 10 9 9 9 8 8 8 8 8 8 7 7 7 7 6 6 6 6 6 6 7 7 7 8 9 9 10
14 13 13 12 12 12 11 10 10 10 9 9 9 9 9 8 8 8 7 7 7 7 7 7 7 6 6 6 6 6 5 5 5 5 6 6 6 7 8 8 9 10 11
15 15 14 13 12 11 10 10 9 9 8 8 7 7 7 7 7 6 6 6 5 5 5 5 5 5 5 5 5 4 4 4 4 5 5 5 6 7 8 8 9 10 11

GEFSGL_500_meanwind_072.txt.gz
Wind_Speed
11 10 9 8 7 7 7 8 11 14 17 20 22 25 27 29 30 30 30 31 31 31 31 31 32 32 32 32 31 31 30 30 31 31 31 31 30 29 28 29 30 29 29
12 11 10 8 6 5 5 5 6 7 11 14 17 20 23 26 28 29 30 30 31 31 31 31 31 31 32 32 32 31 30 30 31 32 32 31 29 29 29 29 28 28 29
13 12 12 11 8 5 3 3 4 5 7 8 12 16 18 21 24 26 27 28 29 29 29 29 30 31 31 31 31 30 30 31 31 31 30 30 30 29 28 27 27 28 27
15 13 13 13 11 8 5 3 2 3 5 6 8 11 14 17 20 22 23 24 25 26 27 27 28 28 28 28 29 29 30 30 30 29 28 28 28 26 25 25 25 24 24
16 15 14 13 12 11 9 7 4 2 4 5 7 7 9 12 15 17 18 19 21 22 23 24 25 26 27 27 27 26 26 26 26 26 25 25 23 22 22 22 21 20 21
18 17 15 14 13 12 10 8 7 4 1 2 3 5 6 8 10 14 15 16 16 17 19 20 21 22 23 24 23 22 22 21 20 20 20 19 18 18 18 19 19 19 19
20 18 17 16 15 13 11 10 9 7 5 3 1 1 2 4 7 10 12 13 14 15 17 18 19 19 19 19 19 19 19 19 18 16 16 16 16 16 17 17 16 16 17
21 20 19 18 17 15 13 11 10 8 7 5 3 2 0 2 4 6 8 9 11 12 14 15 16 16 16 15 15 15 15 15 15 14 13 14 14 15 14 14 14 14 15
22 21 20 19 18 17 16 13 11 9 7 6 5 3 1 1 3 4 6 6 7 9 10 12 12 13 13 13 13 13 13 13 14 13 13 13 12 12 11 11 11 12 13
23 22 21 20 20 19 17 15 13 11 9 7 6 4 2 1 2 3 5 6 7 8 9 10 12 12 12 12 12 12 13 12 11 11 10 9 9 8 9 9 10 10 11
23 23 22 22 21 20 19 17 16 14 12 10 8 6 4 1 2 4 5 6 6 7 9 10 10 11 11 11 11 11 11 10 9 8 8 8 7 7 8 8 9 9 10
22 22 22 22 21 20 19 19 17 16 14 12 10 8 6 3 1 3 5 5 6 7 8 8 9 10 10 10 10 9 9 8 8 8 7 7 7 7 7 7 8 8 8
22 22 22 22 21 21 20 19 18 17 15 14 12 10 8 6 4 3 4 5 6 6 7 7 8 8 9 10 9 9 8 8 7 7 7 7 7 7 6 6 6 6 7
22 22 22 21 21 21 20 20 19 18 17 15 14 12 10 8 7 5 4 5 5 6 7 7 7 8 8 8 8 8 8 8 7 7 7 6 6 6 5 5 5 5 5
22 22 22 21 21 20 20 20 19 19 18 17 15 13 12 10 9 7 6 5 5 6 6 6 7 7 7 8 8 8 8 7 7 6 6 5 5 5 4 4 3 3 3
21 21 21 21 20 19 19 19 19 19 18 17 16 14 13 12 11 9 8 8 8 6 6 6 6 7 7 8 7 7 7 7 7 6 5 4 4 4 3 2 2 2 2
19 20 20 20 20 19 19 18 18 18 18 17 16 15 14 13 12 11 9 8 8 7 7 7 7 7 7 7 7 7 7 7 7 6 5 4 4 3 2 1 1 0 1
18 18 19 19 19 18 18 18 17 17 17 17 16 15 14 13 12 11 10 9 9 9 8 8 8 8 8 8 8 8 8 7 7 6 5 5 4 3 2 2 2 2 2
16 17 17 17 17 17 17 17 16 16 16 16 16 15 14 13 12 12 12 11 10 9 9 9 9 8 8 8 8 8 8 7 7 6 5 5 4 4 4 3 3 2 2
14 15 15 16 16 16 16 16 15 15 15 15 15 14 14 13 13 12 12 11 10 10 10 9 9 9 8 8 8 7 7 7 7 6 6 5 5 4 4 3 3 2 2
13 13 14 14 14 15 14 14 14 13 13 13 13 13 13 12 12 11 11 10 10 9 9 9 8 8 8 8 7 7 7 6 6 6 5 5 4 4 3 3 2 2 2
12 12 12 13 13 12 13 12 12 12 12 11 11 11 11 11 10 10 9 9 9 8 8 7 7 7 6 6 6 6 5 5 5 4 4 4 3 3 2 2 1 2 3
12 12 12 12 11 11 10 10 10 10 10 10 10 9 9 9 8 8 7 7 7 6 6 6 5 5 5 5 4 4 4 4 4 4 3 3 2 2 1 0 1 2 3
12 12 12 11 11 10 9 9 9 8 8 8 8 8 8 7 6 6 6 5 4 4 3 3 3 3 3 3 3 3 2 2 2 2 2 2 2 1 1 1 2 3 4
13 13 12 12 11 10 10 9 9 8 8 7 7 7 6 6 5 5 4 4 3 2 2 1 1 1 1 1 1 1 2 2 2 2 2 2 2 2 2 3 4 5 6
15 14 14 13 12 12 11 11 10 9 9 8 8 7 6 6 5 5 4 3 3 2 1 1 1 1 2 2 2 3 3 3 3 4 4 4 4 4 4 5 6 7 7

GEFSGL_500_meanwind_078.txt.gz
Wind_Speed
17 17 16 14 12 10 9 8 8 9 10 12 15 18 21 22 24 26 27 28 29 31 32 32 32 33 31 30 31 32 31 30 30 29 28 28 27 26 26 25 25 26 26
19 18 17 16 14 12 10 8 8 7 8 8 11 13 17 20 21 23 24 26 27 29 30 29 29 30 31 30 29 29 29 29 29 29 29 28 28 28 27 27 26 26 26
21 19 18 17 16 15 12 9 8 7 7 7 7 9 12 15 18 19 21 23 24 25 27 28 28 28 28 28 27 28 28 27 27 28 28 28 28 28 27 26 26 26 26
22 21 20 19 17 15 14 11 9 8 6 5 4 5 7 10 13 15 18 20 22 23 25 26 27 26 26 26 26 26 26 27 27 27 28 27 27 26 26 26 26 25 24
24 23 22 20 19 17 15 14 11 9 8 6 4 3 4 6 9 12 14 16 19 20 22 24 25 25 25 25 26 26 26 26 26 26 27 27 26 25 25 25 25 24 23
25 25 24 23 21 19 17 16 14 11 9 8 6 5 4 4 6 9 11 14 16 18 19 21 22 23 23 23 24 24 24 23 23 24 24 25 24 24 24 23 22 21 21
26 26 25 24 22 21 19 18 16 14 12 10 7 6 4 3 4 6 8 9 11 13 15 18 19 21 21 20 21 22 21 21 21 20 20 20 19 20 20 19 19 18 18
26 26 26 26 24 23 21 19 18 17 15 13 11 8 5 4 0 2 4 6 7 10 11 13 15 18 18 18 19 18 18 18 18 17 17 18 17 17 17 17 16 16 15
27 27 27 27 26 25 23 21 19 18 17 15 13 11 8 6 3 2 2 5 6 8 9 10 12 14 16 16 16 16 16 17 16 16 16 16 14 14 13 13 12 11 11
27 27 27 27 27 25 24 23 21 20 18 17 15 12 10 8 6 3 4 5 6 6 8 9 10 11 13 13 14 15 15 15 14 13 13 13 12 11 10 10 9 9 9
26 26 27 27 27 26 24 23 22 21 20 18 17 14 12 10 8 6 5 5 5 6 7 7 8 9 11 11 12 13 13 13 13 12 11 10 9 8 8 7 7 7 8
26 26 26 26 26 26 25 23 23 22 21 20 19 16 14 12 10 8 7 6 5 5 6 7 7 8 9 10 10 10 11 11 10 10 9 9 8 7 6 6 6 6 6
25 25 25 25 25 25 25 24 23 22 22 21 20 18 16 14 12 10 8 6 6 5 5 6 7 7 7 8 9 9 9 8 8 8 8 7 7 6 6 5 5 5 5
24 24 24 24 25 25 25 24 23 22 22 21 20 19 17 16 14 12 10 8 6 6 5 5 6 7 7 9 9 9 8 8 7 7 6 6 6 6 6 5 5 5 5
23 23 23 23 24 24 24 23 23 23 22 21 20 19 18 16 15 13 11 10 8 7 6 6 6 6 7 7 8 8 8 7 7 7 6 6 6 6 5 5 4 4 4
21 22 22 23 22 22 22 22 22 22 22 21 20 19 18 17 16 14 13 11 10 8 7 7 6 6 6 7 7 7 7 7 6 6 5 5 4 4 4 3 3 3 3
19 19 20 21 21 21 20 20 20 20 20 20 19 18 17 16 15 14 13 12 10 9 8 8 7 7 7 6 6 7 6 6 5 5 4 4 4 3 3 2 2 2 2
17 17 18 19 19 19 19 19 19 19 19 19 18 17 17 16 15 14 13 12 11 10 9 8 7 7 7 6 6 6 5 5 5 4 4 4 4 3 3 2 2 2 1
15 16 16 16 17 17 17 17 17 17 17 17 17 16 16 15 15 14 13 12 11 10 9 8 8 7 7 6 5 5 5 5 4 4 4 4 3 3 2 2 2 1 1
14 14 14 14 15 15 15 15 15 14 14 15 14 14 14 14 13 13 12 11 10 10 9 8 7 7 6 5 5 4 4 4 4 4 4 3 3 2 2 2 1 1 2
13 13 13 13 13 13 13 13 13 13 12 12 12 12 12 12 11 11 10 10 9 8 8 7 6 6 5 4 4 3 3 3 3 3 3 3 2 2 2 2 2 2 3
13 13 13 13 12 12 12 12 11 11 11 11 10 10 10 9 9 9 8 7 7 6 6 5 5 4 4 3 3 2 2 2 2 2 2 2 3 3 3 3 3 4 4
14 14 14 13 13 12 12 11 11 10 10 10 9 9 8 8 7 7 6 6 5 4 4 3 3 2 1 1 1 1 1 1 1 2 3 3 3 4 4 4 5 5 6
16 16 15 15 14 14 13 12 12 11 10 10 9 8 8 7 7 6 5 5 4 3 3 2 2 1 1 1 1 2 2 3 3 4 4 4 5 5 5 6 7 7 8
19 18 17 17 16 16 15 15 14 13 12 11 11 10 9 8 8 7 6 6 5 4 4 3 3 3 3 3 4 4 5 5 5 6 6 7 7 7 8 8 9 9 9
22 21 20 19 19 18 17 17 17 16 15 14 13 12 12 11 10 10 9 8 8 7 7 6 6 6 6 6 6 7 7 7 8 8 8 9 9 10 10 11 11 11 12

GEFSGL_500_meanwind_084.txt.gz
Wind_Speed
23 22 20 17 16 14 11 8 7 7 8 10 13 15 18 21 24 26 29 32 34 35 36 37 37 36 35 35 35 36 35 35 36 35 34 31 29 28 28 27 26 25 25
25 24 22 20 18 15 13 10 8 6 6 7 9 11 14 17 21 22 25 28 31 34 34 34 35 35 35 34 34 35 35 34 35 35 35 33 32 31 29 28 27 27 27
26 25 24 22 20 17 15 13 10 7 5 5 6 8 10 13 17 19 22 23 26 29 31 32 32 32 33 32 33 33 34 34 33 33 33 33 32 31 29 28 27 27 26
28 27 25 24 22 19 17 15 13 9 7 6 5 5 7 10 13 15 18 20 23 25 28 30 31 31 30 30 31 32 32 33 33 32 31 30 30 29 28 27 26 26 25
29 28 27 25 24 22 20 18 15 12 9 8 6 3 3 6 9 12 15 17 20 23 24 26 29 30 30 30 30 30 31 31 31 30 30 29 28 27 27 26 25 25 25
28 28 28 27 25 24 21 19 17 14 12 9 7 4 2 3 5 8 11 13 16 20 21 23 26 28 29 28 29 28 28 28 28 27 26 26 26 27 26 26 25 24 24
28 28 28 28 26 25 23 21 20 17 15 13 10 7 3 1 2 4 7 9 12 16 18 20 22 24 25 25 25 25 25 25 25 25 25 24 23 24 24 24 24 23 22
28 28 28 27 27 26 25 23 22 20 18 15 11 8 5 2 0 2 4 7 10 12 14 16 18 19 20 21 21 22 22 23 23 23 22 22 22 22 21 21 21 22 22
28 28 28 27 27 26 26 25 24 22 20 17 14 11 8 5 3 2 3 6 8 11 13 14 16 17 18 19 19 19 20 21 21 21 20 20 20 20 19 19 19 19 20
28 28 28 28 27 26 26 25 24 23 21 19 16 14 11 9 6 5 5 5 6 8 11 12 14 15 15 16 18 18 19 20 20 20 20 19 18 17 17 16 16 16 17
27 27 27 27 27 26 26 25 24 23 22 20 18 16 14 11 9 7 6 6 6 7 9 10 11 13 14 15 17 18 18 18 18 18 18 17 16 16 15 14 14 14 14
25 26 27 27 26 26 26 25 25 24 23 21 19 17 16 14 11 9 8 8 7 7 9 9 10 11 12 13 14 15 16 16 16 16 16 16 15 14 14 13 14 13 12
23 24 25 25 25 25 25 25 25 24 23 22 20 19 17 15 14 12 10 9 8 8 9 9 10 11 11 12 13 13 14 15 15 15 14 14 13 13 13 13 12 12 11
21 22 23 23 24 24 24 24 24 23 23 22 21 20 19 17 16 14 13 11 9 9 9 10 10 10 11 12 13 13 14 14 14 14 13 13 12 12 12 11 10 10 9
20 20 21 21 22 22 22 22 23 23 22 21 20 20 19 18 17 15 14 13 11 9 9 9 9 9 10 11 12 12 12 13 13 13 12 12 12 12 11 11 10 10 9
18 19 19 20 20 20 20 20 20 20 20 20 19 18 17 17 16 15 13 12 11 9 8 7 8 8 9 9 10 10 11 11 10 11 11 11 11 10 10 10 10 10 9
17 17 17 18 18 18 18 18 18 18 18 18 17 17 16 15 15 14 13 12 11 10 9 8 8 7 7 7 8 9 9 10 10 10 10 10 9 9 9 9 9 9 8
15 16 16 16 16 16 16 16 15 15 16 16 16 15 15 14 14 13 12 11 10 9 9 8 7 7 7 7 8 8 8 9 9 8 8 8 8 8 8 8 8 8 7
15 15 15 15 14 14 14 14 14 13 13 13 13 13 13 12 11 11 11 10 9 8 7 7 7 6 6 7 7 7 7 7 8 8 8 8 8 8 8 8 7 7 7
16 15 15 14 14 13 13 13 12 12 11 11 11 11 10 10 10 9 9 8 8 7 6 5 5 4 4 5 5 6 6 6 7 7 7 8 8 8 8 7 7 7 7
18 17 16 15 14 14 13 12 12 11 11 10 9 9 9 8 8 7 7 6 6 5 4 4 3 2 2 3 4 5 5 6 6 6 7 8 8 8 8 8 8 8 7
20 19 18 17 16 15 14 13 13 12 11 10 9 9 8 8 7 6 6 5 4 3 2 2 1 0 1 2 3 3 4 5 6 7 7 8 8 8 8 8 8 8 8
23 22 21 20 19 17 16 15 14 13 12 11 11 10 9 8 8 7 6 6 5 4 4 3 3 2 3 3 3 4 4 5 6 7 7 8 9 9 9 9 9 10 10
27 26 24 23 22 20 19 18 17 16 14 14 13 12 11 10 10 9 9 8 7 7 6 6 6 5 5 5 6 6 6 7 7 8 8 9 9 10 10 10 11 11 11
32 30 28 27 25 24 22 21 20 19 17 16 16 15 14 13 12 12 11 11 10 10 9 9 9 9 9 9 8 8 9 9 9 10 10 11 11 12 12 12 12 13 13
36 34 33 31 30 28 26 25 23 22 21 20 19 18 17 16 16 15 14 14 13 13 12 12 12 12 12 12 12 12 12 12 12 12 12 13 13 13 14 14 15 15 15

GEFSGL_500_meanwind_090.txt.gz
Wind_Speed
29 28 27 26 25 22 20 17 14 11 8 8 9 10 13 17 20 24 28 30 33 35 36 38 39 40 40 39 38 37 37 36 36 36 35 35 33 32 31 30 30 28 27
30 29 28 28 27 25 22 19 15 12 9 7 7 8 10 13 16 20 24 27 30 32 34 36 37 39 39 40 39 37 36 35 36 35 36 35 34 32 32 31 30 29 29
31 30 29 28 27 26 24 21 18 15 11 8 7 6 8 10 13 17 20 23 26 28 31 33 35 36 37 38 38 37 35 35 35 35 35 34 34 34 32 32 31 30 30
32 31 30 29 28 26 25 23 21 18 15 11 8 6 5 7 10 13 16 18 21 24 27 29 31 33 34 35 36 36 36 36 36 35 33 32 33 33 33 32 31 31 30
32 32 31 30 29 27 26 24 22 21 18 15 12 9 6 5 7 10 12 14 17 19 21 24 27 30 31 32 33 34 34 34 34 33 33 32 32 32 32 32 32 31 30
32 32 32 31 30 29 27 24 23 21 20 17 16 13 9 6 4 6 8 10 13 16 17 20 23 26 27 28 30 31 32 32 31 32 31 32 31 31 31 31 30 29 28
31 31 32 32 32 30 28 25 24 22 21 19 17 15 12 8 5 2 5 7 10 13 15 17 20 22 24 25 27 28 29 30 29 29 30 30 29 29 28 28 28 27 27
30 31 31 32 33 32 30 28 25 24 23 20 18 16 13 10 7 4 2 3 6 9 12 14 16 18 21 23 24 25 26 26 27 27 27 27 26 26 26 25 26 25 25
29 30 31 31 32 32 31 29 27 25 25 23 20 18 15 12 9 6 3 1 2 6 9 12 14 16 18 21 22 22 23 24 24 23 23 24 24 24 24 24 24 24 23
28 28 29 30 30 31 30 29 28 27 26 24 23 21 18 15 11 8 6 4 2 3 6 9 11 14 15 17 18 19 20 21 21 22 22 22 23 24 24 23 23 23 22
27 27 27 28 28 29 29 29 28 27 26 25 23 22 20 18 15 11 9 7 5 4 5 7 9 11 13 15 16 17 18 19 20 19 20 21 21 22 22 22 22 21 20
25 26 26 26 27 27 27 27 27 27 26 25 24 22 20 18 16 14 11 9 7 6 5 5 7 9 11 12 14 15 16 17 18 18 18 18 19 19 19 20 20 19 19
24 25 25 25 25 25 25 25 25 25 25 24 23 22 20 18 17 14 12 10 8 6 5 5 6 7 9 10 11 13 14 14 15 16 17 16 17 17 17 17 17 17 17
23 23 24 24 23 23 23 23 23 23 23 22 22 21 20 19 17 15 13 11 9 8 6 4 4 5 7 8 9 10 12 12 14 15 15 15 15 15 15 15 16 16 16
22 22 22 22 22 22 21 21 21 21 21 20 20 20 19 18 17 15 13 11 9 6 5 4 3 4 5 7 8 10 11 12 13 13 13 14 14 14 15 15 15 15 15
22 21 21 21 21 21 20 20 19 19 19 19 18 18 17 17 16 15 13 12 10 8 5 4 3 3 4 5 7 9 10 11 12 12 13 13 13 13 13 14 14 14 13
22 21 21 20 20 20 19 19 18 18 17 17 17 17 16 15 15 14 13 11 10 9 7 5 3 3 4 4 6 7 8 9 10 12 12 12 12 12 12 12 13 13 12
22 22 21 20 20 19 19 18 17 17 16 15 15 15 14 14 13 12 12 11 10 8 7 5 4 2 1 2 4 5 6 8 9 10 10 10 10 11 11 11 11 11 11
24 23 22 21 21 20 19 18 17 16 15 15 14 13 12 12 11 10 10 9 8 7 7 5 4 3 2 1 2 3 5 6 7 8 9 9 10 10 10 10 10 10 10
26 25 24 23 22 21 20 19 18 17 16 15 14 13 12 11 10 9 8 7 7 6 5 4 3 2 1 0 1 3 4 5 7 8 8 8 9 9 9 9 9 10 10
29 28 27 26 25 24 22 21 20 19 18 16 15 14 13 12 10 9 8 7 7 6 5 4 3 3 2 2 2 3 4 5 6 7 8 9 9 9 9 10 10 10 11
32 31 30 29 28 26 25 24 23 21 20 19 17 16 15 14 13 11 10 9 8 7 6 6 6 5 5 5 5 5 6 6 7 8 8 9 10 10 10 11 11 11 12
36 35 34 32 31 30 28 27 26 24 23 22 20 19 18 17 15 14 13 12 11 10 10 9 8 8 8 8 8 8 8 9 9 9 10 10 11 11 12 12 12 12 12
40 39 38 36 35 34 32 31 29 28 26 25 23 22 21 20 19 18 17 15 14 13 13 12 12 11 11 10 10 11 11 11 12 12 12 12 12 13 13 14 14 14 14
44 43 42 41 39 38 37 35 33 32 30 28 27 26 24 24 23 22 20 19 18 17 16 16 15 14 14 14 13 13 13 13 13 14 14 14 15 15 15 15 16 16 17
48 47 46 45 44 42 41 40 38 36 34 33 31 30 28 27 26 25 24 23 22 21 20 19 19 18 18 17 17 17 16 16 16 16 17 17 17 17 18 18 18 18 19

GEFSGL_500_meanwind_096.txt.gz
Wind_Speed
31 31 31 30 28 26 25 22 20 17 13 10 7 7 9 13 17 20 24 27 30 32 34 36 39 40 41 42 42 41 40 38 38 38 38 37 36 36 36 35 34 32 31
31 31 31 31 29 27 26 24 22 19 16 13 9 6 7 10 14 17 20 24 27 29 31 33 36 38 40 40 41 41 41 39 38 38 37 37 36 35 35 35 34 33 32
31 31 31 31 30 28 27 26 23 21 19 16 12 7 5 7 10 14 17 20 24 26 29 31 33 35 38 39 39 40 41 39 39 38 37 36 36 36 36 35 35 34 33
30 30 31 31 30 29 28 27 25 23 20 18 15 11 6 3 6 10 13 16 20 23 26 28 31 33 35 37 38 39 40 39 38 38 36 36 36 36 36 35 34 33 32
30 30 31 31 30 29 28 27 26 24 22 20 18 13 9 5 2 5 9 13 16 19 22 25 28 31 32 33 35 36 37 37 37 37 36 34 34 35 35 33 33 32 32
29 30 30 30 30 30 29 27 26 25 24 22 19 15 11 8 5 1 4 8 11 15 19 22 24 26 29 31 32 33 35 35 35 35 35 34 32 32 32 33 33 32 32
28 29 30 30 29 30 30 29 28 26 25 23 20 18 14 11 7 4 0 4 8 11 14 18 21 23 27 28 30 31 32 34 33 33 33 32 32 32 31 32 32 31 31
27 28 29 29 29 29 29 29 29 28 26 24 21 19 17 13 10 7 3 0 4 7 11 14 16 19 23 25 27 28 30 31 32 32 32 32 32 32 31 32 31 30 31
26 26 27 27 28 28 28 28 28 28 27 25 22 19 17 15 12 9 6 3 1 4 7 9 12 16 18 21 24 25 27 29 30 31 30 30 30 30 30 31 32 30 29
25 25 25 26 26 26 27 27 27 27 26 26 24 21 18 16 14 11 8 5 2 1 4 6 9 12 14 17 20 22 23 25 27 28 28 28 28 28 28 29 29 30 29
24 24 24 24 25 25 25 26 26 26 25 24 24 22 20 17 14 13 11 8 5 2 1 4 7 10 12 14 17 19 21 22 23 24 25 25 26 27 26 26 27 28 27
23 23 23 23 23 23 23 24 24 24 23 23 22 21 20 17 15 12 11 9 7 4 2 2 4 7 10 12 15 17 18 19 20 21 22 22 23 24 24 25 26 27 26
22 22 22 22 22 22 22 22 22 22 22 21 20 20 19 18 16 13 12 10 8 6 3 1 2 4 7 10 13 15 16 18 19 20 20 21 21 22 22 23 23 23 23
22 22 22 22 22 21 21 21 21 21 20 20 19 18 18 17 16 14 12 10 8 6 4 1 1 2 5 8 11 13 15 16 17 18 19 19 20 21 21 21 21 21 21
22 22 22 22 21 21 21 20 20 20 19 18 18 17 16 16 15 14 13 11 9 7 5 3 2 3 4 6 9 12 13 14 16 17 17 18 18 18 19 20 20 20 21
23 22 22 22 21 21 21 20 19 19 18 18 17 16 15 15 14 13 12 11 10 8 6 4 3 3 4 6 8 10 12 13 15 16 16 16 17 18 18 18 19 20 21
24 24 24 23 22 22 21 20 20 19 18 18 17 16 15 14 14 13 12 11 10 8 7 5 4 3 3 5 7 8 10 11 13 14 15 16 17 18 18 18 18 18 19
26 26 26 25 24 23 23 22 21 20 19 18 18 17 16 15 14 13 11 11 9 8 7 5 4 3 3 4 6 7 9 10 11 13 15 16 17 18 18 18 18 18 18
28 28 28 27 26 26 25 24 23 22 21 20 19 18 17 16 15 14 13 12 11 9 8 7 6 6 5 6 6 7 9 10 11 13 14 15 16 17 18 18 19 18 18
31 30 30 29 28 28 28 27 26 25 24 23 22 21 20 19 18 16 15 14 13 12 11 10 9 8 8 8 8 9 9 10 11 12 13 15 15 16 16 17 18 18 18
32 32 32 31 31 31 30 30 29 29 28 27 25 24 23 22 21 20 18 17 16 14 14 13 12 11 11 11 10 10 10 10 11 13 14 14 15 16 16 16 17 18 18
34 34 34 33 33 33 33 33 32 32 31 30 29 28 27 25 24 23 22 21 20 18 17 16 15 14 14 13 13 13 13 13 12 13 13 15 15 16 16 16 17 17 18
37 37 37 37 37 36 36 36 35 35 35 34 33 32 31 30 28 27 26 25 24 23 21 20 19 18 18 17 17 16 16 16 16 16 15 16 16 17 17 18 18 19 19
40 40 40 40 40 40 40 40 39 39 39 38 38 37 36 34 33 32 31 29 28 27 26 25 24 22 21 21 20 20 19 19 19 19 19 18 18 19 19 20 20 20 20
43 43 44 44 44 44 44 44 44 43 43 42 42 41 41 39 38 37 36 34 33 32 30 29 28 27 26 25 24 24 23 22 22 22 22 22 22 22 22 22 22 22 22
46 47 47 48 48 48 48 48 48 47 47 47 46 46 45 44 43 42 40 39 38 36 35 34 33 31 30 29 28 27 27 26 26 25 25 25 25 25 25 25 25 25 25

GEFSGL_500_meanwind_102.txt.gz
Wind_Speed
31 31 31 31 31 30 29 28 27 24 22 20 17 14 9 6 7 10 12 16 20 24 27 29 31 32 33 34 35 37 37 35 34 33 32 32 32 30 31 31 32 32 32
30 31 31 32 31 31 30 29 28 26 24 21 18 16 11 7 5 6 10 12 16 20 24 27 29 30 31 32 34 35 36 36 35 34 34 34 33 33 32 32 32 33 33
30 31 31 31 31 31 31 30 29 28 25 23 20 17 13 9 5 4 6 9 12 16 20 23 26 27 28 30 32 33 35 35 35 35 35 34 34 34 33 33 33 32 33
29 30 30 30 31 31 31 31 30 28 26 24 22 19 15 12 7 3 3 6 9 13 16 20 23 25 25 27 29 31 33 34 34 35 35 35 35 34 33 33 33 33 33
28 29 29 30 30 31 30 30 30 29 27 24 22 20 18 14 10 6 4 3 6 9 13 16 19 21 23 25 26 28 30 32 34 35 35 35 35 34 33 32 32 33 34
27 28 28 29 29 29 30 29 30 29 27 25 22 21 19 17 13 10 7 4 3 6 9 12 15 18 20 23 24 26 28 30 32 33 34 34 34 34 34 34 33 33 33
26 27 27 27 28 28 29 29 29 29 28 25 23 21 20 18 16 13 10 7 3 3 6 9 12 15 17 19 22 23 25 26 29 31 32 33 33 33 33 33 32 31 30
25 26 26 26 27 27 27 28 28 28 27 26 24 22 20 19 17 15 12 9 6 3 4 7 9 12 15 17 19 21 22 24 25 27 28 30 31 32 32 31 31 32 31
25 25 25 25 26 26 26 26 26 26 26 26 24 23 21 19 18 16 14 12 9 5 4 5 7 10 12 14 17 19 20 21 23 25 26 27 28 29 30 31 31 31 31
24 24 24 24 24 24 25 25 25 24 24 24 24 23 21 20 18 17 16 13 11 8 5 4 6 8 10 12 14 17 18 20 21 23 25 25 26 26 27 29 29 28 29
24 24 24 24 24 24 24 24 24 23 23 23 23 22 22 21 19 18 17 15 12 10 7 5 5 6 8 10 12 14 16 18 19 21 23 25 26 25 25 26 27 27 27
24 24 24 24 23 23 23 23 23 22 22 22 22 21 21 21 20 19 17 16 14 11 9 7 6 6 7 8 10 12 14 15 17 19 21 23 24 24 24 25 25 26 26
24 24 24 24 24 23 23 23 22 22 21 21 21 21 20 20 20 19 18 17 15 13 11 9 8 7 7 7 8 10 12 13 15 17 19 21 22 23 24 25 25 25 25
25 25 25 25 24 24 23 23 22 22 21 21 21 20 20 19 19 19 18 17 16 14 12 11 10 9 8 7 8 9 10 12 14 16 17 19 21 23 23 24 25 26 27
26 26 26 26 25 25 24 24 23 23 22 21 20 20 20 19 19 18 18 17 16 14 13 12 11 10 9 9 9 10 11 12 13 15 16 18 19 21 22 23 24 26 25
28 28 27 27 27 26 26 25 25 24 23 23 21 20 20 19 19 19 18 17 16 15 14 13 12 11 11 10 10 10 11 13 14 14 16 17 19 20 21 22 23 24 24
29 29 28 29 29 28 28 27 26 25 25 24 23 22 22 21 20 19 19 18 17 17 16 15 13 12 12 12 11 11 11 12 14 15 15 17 18 20 21 22 22 22 23
30 30 30 30 30 30 29 29 28 27 26 25 25 24 24 23 22 21 21 20 19 18 18 17 16 15 14 13 13 13 13 13 14 15 15 17 18 20 21 21 22 22 23
31 31 31 31 31 30 30 29 29 28 27 27 26 26 26 25 25 24 23 22 21 21 20 19 18 18 17 16 15 15 14 14 14 15 16 17 18 19 20 21 21 22 22
33 33 33 32 32 32 31 31 30 30 29 29 28 28 28 27 27 27 27 26 25 24 23 22 21 20 20 19 18 17 17 17 16 16 17 18 18 18 19 20 21 22 22
35 35 34 34 34 34 33 33 32 32 32 31 31 31 31 31 30 30 30 29 29 28 27 27 25 24 23 22 22 21 20 19 19 19 19 19 19 19 20 20 21 22 22
37 37 36 36 36 36 35 35 35 35 35 35 34 35 35 34 34 34 34 33 33 33 32 31 30 29 28 26 25 25 24 23 22 22 22 22 22 22 22 21 22 23 23
39 38 38 38 37 37 37 37 37 38 38 38 38 38 38 38 38 38 38 38 37 37 36 35 35 34 32 31 30 29 28 27 27 26 25 24 24 24 24 24 24 23 24
40 39 39 39 39 39 39 40 41 41 42 42 42 42 42 42 42 42 42 42 41 41 40 40 39 38 37 36 34 33 32 32 31 30 29 28 27 26 26 26 26 25 25
41 41 41 41 42 42 43 43 44 44 44 44 45 45 45 45 45 46 46 46 46 45 45 44 43 42 41 40 39 38 37 36 35 34 33 32 31 30 29 28 28 28 28
43 43 44 44 45 45 45 46 46 47 47 47 47 48 48 48 48 48 49 49 49 48 48 48 47 47 46 45 44 42 41 40 39 38 37 36 34 33 33 32 31 30 30